Location: Beddau
(51.5575°N, 3.3561°W)
Time: 12:55:46
(UTC+00:00)

SJ-6B - Pass Details

Date: 03 March 2021
Orbit: 509 x 581 km, 97.6° (Epoch: 17 April)

Event Time Altitude Azimuth Distance (km) Brightness Sun altitude
Exits shadow 19:22:51 15° 138° (SE) 1,580 4.7 -14.0°
Maximum altitude 19:25:59 45° 70° (ENE) 784 3.2 -14.5°
Drops below altitude 10° 19:29:51 10° 357° (N) 1,872 5.7 -15.1°
Sets 19:32:02 0° 351° (N) 2,762 6.6 -15.4°
